[[{"header":{"parameterUnit":"m.s-1","parameterCategory":1,"la1":30.2991,"la2":30.254,"lo1":-89.0895,"lo2":-89.0444,"dy":0.0017,"dx":0.0017,"nx":28,"ny":28,"refTime":"2023-08-02T09:00:00:Z","depth":0,"parameterNumber":2,"parameterNumberName":"U-component_of_WINDS"},"data":[0,0,0,0,0,0,0,0,0,0,0,0,0,0,0,0,0,0,0,0,0,0,0,0,0,0,0,0,0,0,0,0,0,0,0,0,0,0,0,0,0,0,0,0,0,0,0,0,0,0,0,0,0,0,0,0,0,0,1.913,1.913,0,1.9126,1.9126,1.9126,1.9068,1.9066,1.9065,1.9063,1.9059,1.906,1.9061,0,0,0,0,0,0,0,0,0,0,0,0,0,1.9085,1.9086,1.913,1.913,1.913,1.9126,1.9126,1.9126,1.9068,1.9066,1.9064,1.9063,1.9058,1.906,1.9061,0,0,0,0,0,0,0,0,0,0,0,0,0,1.9095,1.9086,1.913,1.91,1.9098,1.9126,1.9126,1.9126,1.9068,1.9066,1.9064,1.9062,1.9058,1.906,1.9062,1.9117,0,0,1.9067,1.9068,0,0,0,0,0,0,0,0,1.9094,1.9097,1.9105,1.9102,1.9099,1.9095,1.9108,1.9123,1.9069,1.9079,1.9063,1.9061,1.9073,1.9073,1.9077,1.9117,1.9117,1.9067,1.9069,1.9069,1.907,0,0,0,0,0,0,0,1.9094,1.9096,1.9128,1.9105,1.9102,1.9087,1.9086,1.9111,1.9088,1.9078,1.9074,1.9075,1.9071,1.9076,1.9077,1.9117,1.9067,1.9069,1.907,1.9071,1.9198,1.92,0,0,0,0,0,0,1.9097,1.9096,1.9128,1.9128,1.9091,1.9089,1.9088,1.9099,1.9088,1.9084,1.9076,1.9072,1.9073,1.9075,1.9076,1.9138,1.9069,1.9071,1.9072,1.9196,1.9199,1.9201,0,0,0,0,0,0,1.9097,1.9101,1.9128,1.9111,1.9113,1.9092,1.9105,1.91,1.9104,1.9087,1.9082,1.9086,1.9072,1.9074,1.9107,1.9137,1.9072,1.9074,1.9193,1.9197,1.92,1.9264,0,0,0,0,0,0,1.9096,1.9101,1.9123,1.9112,1.9114,1.916,1.9107,1.9101,1.9108,1.9102,1.9094,1.909,1.907,1.9104,1.9109,1.9138,1.9075,1.9191,1.9195,1.9199,1.9259,1.9269,1.9277,0,0,0,0,0,1.9094,1.9141,1.9124,1.9128,1.9141,1.9162,1.9163,1.9139,1.9111,1.9131,1.9119,1.9091,1.9134,1.9108,1.9113,1.9143,1.9189,1.9194,1.9199,1.9254,1.9267,1.9277,0,0,0,0,0,0,1.9157,1.9139,1.912,1.9165,1.9165,1.9152,1.9178,1.9153,1.9161,1.9155,1.9125,1.9123,1.916,1.9156,1.9128,1.9195,1.9156,1.9162,1.9197,1.9208,1.9217,1.9217,1.9077,0,0,0,0,0,1.9176,1.9194,1.9178,1.9219,1.922,1.9199,1.9207,1.9188,1.9187,1.9187,1.9178,1.9177,1.919,1.9199,1.921,1.9258,1.9254,1.9281,1.9291,1.9299,1.9304,1.9325,1.9336,1.9218,1.9218,1.9218,0,0,1.9215,1.9208,1.9222,1.9232,1.9229,1.9248,1.92,1.9222,1.9235,1.919,1.922,1.9213,1.921,1.925,1.9267,1.9247,1.9335,1.9305,1.9311,1.9312,1.9331,1.9343,1.9353,1.9221,1.9221,1.922,0,0,1.9295,1.9293,1.9326,1.9324,1.9321,1.9306,1.9314,1.9304,1.9298,1.9327,1.9293,1.9308,1.9332,1.933,1.9333,1.941,1.9383,1.9415,1.9463,1.9484,1.9494,1.9502,1.9526,1.9536,1.9421,1.9421,1.9421,0,1.9345,1.9372,1.9346,1.9369,1.9373,1.9334,1.9365,1.9365,1.9366,1.9369,1.9347,1.9374,1.937,1.9407,1.9425,1.943,1.9436,1.9415,1.9495,1.9502,1.9509,1.9533,1.9542,1.9424,1.9424,1.9424,1.9423,0,1.9431,1.945,1.9476,1.9477,1.9485,1.9513,1.9489,1.95,1.948,1.9467,1.9496,1.949,1.9497,1.9505,1.9487,1.9539,1.9526,1.95,1.9459,1.9525,1.9546,1.9555,1.943,1.9428,1.9427,1.9426,0,0,1.955,1.9535,1.9545,1.9543,1.9536,1.955,1.9575,1.9582,1.959,1.9593,1.9611,1.9631,1.9606,1.9608,1.959,1.9609,1.9667,1.9579,1.9579,1.9593,1.972,1.9738,1.9749,1.9649,1.9651,1.9652,1.9719,0,1.9625,1.9667,1.9643,1.9688,1.9703,1.9665,1.9686,1.9684,1.9672,1.9683,1.967,1.9684,1.9651,1.9652,1.9669,1.9656,1.9691,1.9651,1.9664,1.9665,1.9663,1.9761,1.978,1.9844,1.9728,1.9729,1.973,0,1.9719,1.9723,1.9769,1.9756,1.9762,1.9781,1.9784,1.9796,1.9791,1.9782,1.9784,1.9759,1.9781,1.9743,1.9771,1.9745,1.9749,1.9743,1.9745,1.9743,1.97,1.9759,1.9864,1.9872,1.9744,1.9743,1.9742,0,1.9797,1.9815,1.9844,1.9844,1.9831,1.9845,1.984,1.9833,1.9838,1.9841,1.9843,1.9849,1.9851,1.9856,1.9833,1.9808,1.9863,1.9824,1.9854,1.9854,1.9865,1.9865,1.997,1.9873,1.9873,1.9873,1.9872,0,1.9882,1.9911,1.9878,1.9896,1.9926,1.9898,1.9929,1.992,1.9914,1.9928,1.9896,1.9909,1.9879,1.989,1.9872,1.9896,1.9899,1.989,1.9884,1.9891,1.9892,1.9892,1.9885,1.9875,1.9875,1.9874,1.9874,0,1.9974,1.9954,1.9982,1.9967,1.9963,1.9986,1.9972,1.9987,1.9973,1.9991,1.9993,1.9971,1.9981,1.9959,1.9967,1.9955,1.9989,1.9978,1.999,1.9986,2.0016,2.0012,2.0122,2.0134,2.0032,2.0033,2.0034,0,2.0029,2.0049,2.0036,2.0042,2.0039,2.0051,2.0055,2.0028,2.0034,2.0029,2.0043,2.0051,2.0055,2.0073,2.0057,2.0062,2.0048,2.0087,2.0049,2.0054,2.0045,2.0043,2.0044,2.0094,2.0095,2.0096,2.0097,0,2.0126,2.0114,2.0121,2.0125,2.013,2.0132,2.0131,2.0138,2.0109,2.0117,2.0127,2.013,2.0137,2.0143,2.0144,2.0138,2.0112,2.0109,2.0116,2.0122,2.0127,2.0121,2.0008,2.0106,2.0105,2.0105,2.0104,2.0104,2.0198,2.0214,2.0206,2.0214,2.021,2.021,2.0222,2.0209,2.0216,2.0219,2.0203,2.0215,2.0208,2.0206,2.0203,2.0211,2.0194,2.0204,2.0206,2.0208,2.0212,2.0128,2.0212,2.0211,2.0211,2.0211,2.0211,0,2.0291,2.0283,2.0292,2.029,2.0297,2.0272,2.0269,2.0276,2.0287,2.0282,2.0287,2.0296,2.0302,2.0287,2.029,2.0299,2.0287,2.0301,2.0298,2.0297,2.0229,2.0221,2.031,2.031,2.031,2.031,2.031,2.031,2.034,2.0364,2.0351,2.0372,2.0364,2.0375,2.0375,2.0374,2.0369,2.0381,2.0386,2.0376,2.0366,2.0368,2.0371,2.0366,2.0368,2.0385,2.0376,2.0312,2.0302,2.0293,2.0285,2.0386,2.0386,2.0442,2.0443,2.0443]},{"header":{"parameterUnit":"m.s-1","parameterCategory":1,"la1":30.2991,"la2":30.254,"lo1":-89.0895,"lo2":-89.0444,"dy":0.0017,"dx":0.0017,"nx":28,"ny":28,"refTime":"2023-08-02T09:00:00:Z","depth":0,"parameterNumber":3,"parameterNumberName":"V-component_of_WINDS"},"data":[0,0,0,0,0,0,0,0,0,0,0,0,0,0,0,0,0,0,0,0,0,0,0,0,0,0,0,0,0,0,0,0,0,0,0,0,0,0,0,0,0,0,0,0,0,0,0,0,0,0,0,0,0,0,0,0,0,0,2.2609,2.2609,0,2.2654,2.2654,2.2655,2.2626,2.2624,2.2623,2.2622,2.2665,2.2667,2.2669,0,0,0,0,0,0,0,0,0,0,0,0,0,2.2493,2.2495,2.2609,2.2609,2.261,2.2654,2.2654,2.2655,2.2626,2.2624,2.2623,2.2621,2.2664,2.2667,2.267,0,0,0,0,0,0,0,0,0,0,0,0,0,2.2541,2.2496,2.2609,2.2601,2.26,2.2654,2.2655,2.2655,2.2626,2.2624,2.2622,2.262,2.2663,2.2667,2.267,2.2733,0,0,2.2681,2.2683,0,0,0,0,0,0,0,0,2.2538,2.2545,2.2601,2.2601,2.2601,2.2632,2.2629,2.2681,2.2627,2.2616,2.2622,2.2619,2.2655,2.2659,2.2672,2.2735,2.2737,2.2681,2.2684,2.2685,2.2686,0,0,0,0,0,0,0,2.2535,2.2543,2.2626,2.2602,2.2602,2.2593,2.2598,2.2639,2.2646,2.2617,2.2615,2.2621,2.2655,2.2669,2.2673,2.2737,2.2681,2.2685,2.2687,2.2688,2.2851,2.2853,0,0,0,0,0,0,2.2533,2.2541,2.2625,2.2628,2.2564,2.2597,2.2602,2.2624,2.2646,2.2647,2.2623,2.2619,2.2664,2.2669,2.2674,2.2748,2.2685,2.2688,2.2691,2.2849,2.2852,2.2854,0,0,0,0,0,0,2.2531,2.2541,2.2623,2.2584,2.2594,2.2601,2.2626,2.2626,2.264,2.265,2.2651,2.2636,2.2662,2.2669,2.2718,2.2749,2.269,2.2693,2.2846,2.285,2.2853,2.2896,0,0,0,0,0,0,2.2527,2.254,2.2565,2.2585,2.2596,2.2668,2.2628,2.2628,2.2647,2.2643,2.2663,2.2664,2.2661,2.2713,2.2722,2.2753,2.2696,2.2844,2.2848,2.2852,2.2892,2.29,2.2907,0,0,0,0,0,2.2523,2.2575,2.2567,2.2577,2.2628,2.267,2.2676,2.2672,2.2649,2.2674,2.268,2.2664,2.2744,2.2718,2.2728,2.276,2.2842,2.2847,2.2851,2.2888,2.2899,2.2907,0,0,0,0,0,0,2.2558,2.2578,2.2568,2.2628,2.2648,2.2665,2.2695,2.2684,2.2709,2.2704,2.2698,2.2703,2.2753,2.2762,2.2733,2.2821,2.2789,2.2796,2.2814,2.2824,2.2831,2.2828,2.2699,0,0,0,0,0,2.2573,2.2607,2.2622,2.2673,2.2683,2.2688,2.2706,2.2702,2.2721,2.2729,2.2738,2.2757,2.2786,2.2805,2.2833,2.2893,2.2896,2.292,2.2928,2.2934,2.294,2.297,2.2981,2.287,2.287,2.287,0,0,2.2604,2.2619,2.264,2.268,2.2695,2.2728,2.2695,2.2732,2.2756,2.2734,2.278,2.2788,2.2808,2.2862,2.2887,2.2871,2.2971,2.294,2.2945,2.2948,2.2976,2.2987,2.2996,2.2873,2.2873,2.2872,0,0,2.2677,2.2692,2.2736,2.2751,2.2774,2.2776,2.2786,2.2805,2.281,2.2856,2.284,2.2868,2.2919,2.2933,2.2947,2.3024,2.3009,2.3033,2.3074,2.3104,2.3112,2.312,2.3146,2.3155,2.3039,2.304,2.304,0,2.2712,2.2763,2.276,2.2798,2.2815,2.2797,2.284,2.2855,2.2885,2.2896,2.2878,2.2941,2.2953,2.301,2.3028,2.3041,2.3051,2.3031,2.3112,2.3119,2.3126,2.3151,2.3161,2.3042,2.3042,2.3042,2.3041,0,2.2804,2.284,2.2872,2.2902,2.2923,2.2964,2.2965,2.2986,2.2979,2.2983,2.303,2.3044,2.3073,2.3087,2.3081,2.3142,2.3131,2.3113,2.308,2.314,2.3162,2.3172,2.3046,2.3045,2.3044,2.3044,0,0,2.29,2.2927,2.2939,2.2952,2.2975,2.3001,2.304,2.307,2.3087,2.3108,2.314,2.3183,2.3166,2.3181,2.3177,2.3203,2.3261,2.3181,2.3181,2.3194,2.3327,2.334,2.3351,2.3252,2.3253,2.3255,2.3325,0,2.2973,2.3042,2.304,2.3103,2.3135,2.3118,2.3151,2.3168,2.3172,2.3199,2.3203,2.3233,2.3209,2.3218,2.3244,2.3249,2.3287,2.3244,2.3279,2.328,2.3273,2.3363,2.3377,2.3442,2.3334,2.3335,2.3336,0,2.3068,2.3092,2.316,2.3176,2.3189,2.322,2.3246,2.3272,2.329,2.3291,2.3308,2.3299,2.3336,2.3304,2.3354,2.3325,2.3339,2.3343,2.3346,2.3348,2.3311,2.3366,2.3463,2.3472,2.3351,2.335,2.3349,0,2.3129,2.3179,2.3225,2.3237,2.3258,2.3279,2.3289,2.3305,2.3323,2.3345,2.3356,2.3382,2.3396,2.3416,2.3413,2.339,2.3464,2.3431,2.3464,2.3464,2.348,2.3478,2.3579,2.3491,2.3491,2.3491,2.3491,0,2.321,2.3252,2.3253,2.3281,2.3326,2.3322,2.3366,2.3373,2.3388,2.3416,2.3402,2.3429,2.3424,2.345,2.3448,2.3489,2.3496,2.3497,2.3495,2.3497,2.3497,2.3505,2.35,2.3493,2.3493,2.3492,2.3492,0,2.3286,2.3289,2.3338,2.3354,2.3359,2.3391,2.3404,2.343,2.3433,2.3469,2.3477,2.3481,2.3511,2.351,2.3544,2.3542,2.3592,2.3586,2.3586,2.3585,2.3617,2.3614,2.3726,2.3739,2.3644,2.3645,2.3646,0,2.3338,2.3369,2.3388,2.3406,2.3417,2.3447,2.3465,2.3461,2.348,2.3502,2.3525,2.3553,2.3576,2.3624,2.3629,2.3654,2.3648,2.3685,2.3651,2.3652,2.3647,2.3644,2.3646,2.3692,2.3693,2.3694,2.3694,0,2.3427,2.3427,2.3453,2.348,2.3501,2.3522,2.3541,2.3556,2.3555,2.3576,2.3607,2.3624,2.3658,2.3686,2.371,2.3718,2.3706,2.3705,2.3714,2.3715,2.3713,2.3713,2.3603,2.3702,2.3701,2.3701,2.37,2.37,2.3491,2.3517,2.3535,2.3564,2.3578,2.3596,2.3621,2.3627,2.3653,2.3681,2.3677,2.371,2.3726,2.3757,2.3767,2.3792,2.3779,2.3792,2.3795,2.3798,2.3801,2.3711,2.3797,2.3797,2.3796,2.3796,2.3796,0,2.3578,2.3589,2.3616,2.3643,2.3666,2.3653,2.3673,2.3692,2.3722,2.3738,2.3761,2.3795,2.3821,2.3829,2.3854,2.3872,2.3867,2.3879,2.3877,2.3879,2.3812,2.3801,2.3883,2.3883,2.3883,2.3883,2.3883,2.3883,2.3627,2.367,2.3671,2.3721,2.373,2.3764,2.3776,2.3792,2.3804,2.3843,2.3866,2.3871,2.3882,2.3908,2.3932,2.3933,2.3942,2.3956,2.3955,2.3892,2.3884,2.3875,2.3865,2.3959,2.3959,2.4019,2.402,2.402]}]]